Regional Weather Roundup
Issued by NWS

Home | Current Version | Previous Version | Text Only | Print | Product List | Glossary On
Versions: 1 2 3 4 5 6 7 8 9 10 11 12 13 14 15 16 17 18 19 20 21 22 23 24 25 26 27 28 29 30 31 32 33 34 35 36 37 38 39 40 41 42 43 44 45 46 47 48 49 50
000
ASUS46 KLOX 291012
RWRCA

SOUTHERN CALIFORNIA WEATHER ROUNDUP
NATIONAL WEATHER SERVICE OXNARD CALIFORNIA
200 AM PST THU JAN 29 2015

NOTE: "FAIR" INDICATES FEW OR NO CLOUDS BELOW 12,000 FEET WITH NO
SIGNIFICANT WEATHER AND/OR OBSTRUCTIONS TO VISIBILITY.

  -  STATIONS PRECEEDED BY AN ASTERISK (*) ARE NOT NWS OR FAA
     STATIONS AND ARE NOT SUBJECT TO NWS AND FAA QUALITY CONTROL.

CAZ041-042-087-291100-
LA AND ORANGE COUNTY COASTAL AREAS


CITY           SKY/WX    TMP DP  RH WIND       PRES   REMARKS
L.A. DOWNTOWN  CLOUDY    62  46  55 CALM      30.04F
L.A. AIRPORT   CLOUDY    63  47  55 CALM      30.05S
LONG BEACH     CLOUDY    62  50  64 NW3       30.04S

CITY           SKY/WX    TMP DP  RH WIND       PRES   REMARKS
AVALON           N/A    N/A N/A N/A MISG        N/A
FULLERTON      CLOUDY    64  44  48 CALM      30.04R
HAWTHORNE      CLOUDY    63  49  60 CALM      30.05S
*LEO CARRILLO    N/A     68  39  34 NE7G24      N/A
*LOS ALAMITOS  FAIR      57  52  82 SE2       30.04S
*REDONDO BEACH   N/A     58  50  76 CALM      30.05S
SANTA ANA      CLOUDY    65  50  58 CALM      30.04F
STA MONICA APT CLOUDY    63  46  54 NE3       30.05S
*STA MON PIER    N/A     65  48  55 N5        30.04S
*UCLA            N/A     64  41  42 NE6       30.03S

$$

CAZ547-548-048-291100-
LA COUNTY VALLEYS AND INLAND EMPIRE


CITY           SKY/WX    TMP DP  RH WIND       PRES   REMARKS
BURBANK        CLOUDY    61  44  53 E3        30.06R
VAN NUYS       CLOUDY    65  43  44 N10       30.06R

CITY           SKY/WX    TMP DP  RH WIND       PRES   REMARKS
CORONA AIRPORT CLOUDY    66  42  41 E8        30.07S
CHINO          CLOUDY    57  49  74 N3        30.07F
MARCH AFB      CLOUDY    56  44  66 NW1       30.08F
*NORTHRIDGE      N/A     64  37  36 N7G14       N/A
ONTARIO        CLOUDY    57  46  66 CALM      30.06F
*PASADENA        N/A     63  45  51 E2          N/A
RIVERSIDE      CLOUDY    62  43  49 E6        30.07S
SAN BERNARDINO NOT AVBL
*SAN RAFAEL HI   N/A     59  25  27 NE2G16      N/A
*SAUGUS          N/A     60  43  54 CALM        N/A
*WHITEMAN AP   NOT AVBL
*WHITTIER HILL   N/A     64  43  46 NE8         N/A
*WOODLAND HILL   N/A     57  45  62 SE2         N/A

$$

CAZ054-055-291100-
LA AND SAN BERNARDINO COUNTY MOUNTAINS


CITY           SKY/WX    TMP DP  RH WIND       PRES   REMARKS
*BIG BEAR AIRP CLOUDY    32  30  93 CALM      30.23F
*CHILAO          N/A     50  24  35 NE12G28     N/A
MT WILSON NWS    N/A    N/A N/A N/A MISG        N/A
SANDBERG       CLOUDY    50  39  66 E21       30.18F
*WARM SPRINGS    N/A     51  37  59 NE20G31     N/A

$$

CAZ028-029-059-060-099-291100-
ANTELOPE VALLEY AND SURROUNDING AREAS


CITY           SKY/WX    TMP DP  RH WIND       PRES   REMARKS
LANCASTER      CLOUDY    47  44  90 SW3       30.18S
PALMDALE       CLOUDY    48  46  93 CALM      30.18F

CITY           SKY/WX    TMP DP  RH WIND       PRES   REMARKS
29 PALMS       CLOUDY    52  45  77 CALM      30.22S
BARSTOW/DAGGET CLOUDY    52  45  77 W7        30.16F
BISHOP         PTCLDY    37  28  70 N6        30.24F WCI  32
CHINA LAKE     CLOUDY    51  48  89 S6        30.17S
EDWARDS AFB    CLOUDY    48  47  98 SE1       30.16F
MOJAVE         FAIR      50  45  81 NW5       30.19S
NEEDLES        CLOUDY    59  48  67 NW5       30.10F
VICTORVILLE    CLOUDY    46  43  87 CALM      30.18S

$$

CAZ039-040-291100-
VENTURA AND SANTA BARBARA COUNTY COAST


CITY           SKY/WX    TMP DP  RH WIND       PRES   REMARKS
CAMARILLO      CLOUDY    67  43  41 E9        30.04S
NWS OXNARD       N/A     62  49  62 CALM      30.04R
OXNARD AIRPORT CLOUDY    60  56  86 NW5       30.05S
*POINT MUGU    CLOUDY    71  45  39 NE10      30.04F
SBA APT/GOLETA CLOUDY    55  50  83 N5        30.05S
*SANTA BARBARA   N/A     59  49  69 CALM      30.13S
*VENTURA         N/A     62  44  51 CALM      30.08S

$$

CAZ044-045-291100-
VENTURA COUNTY VALLEYS


CITY           SKY/WX    TMP DP  RH WIND       PRES   REMARKS
*SIMI VALLEY     N/A     64  44  48 N14       30.02S
*OJAI            N/A     53  48  83 CALM      30.02R

$$

CAZ053-291100-
VENTURA COUNTY MOUNTAINS


CITY           SKY/WX    TMP DP  RH WIND       PRES   REMARKS
*LOCKWOOD VLY    N/A     39  34  81 MISG        N/A
*ROSE VALLEY     N/A     50  45  81 MISG        N/A

$$

CAZ034-035-036-291100-
CENTRAL COAST AND SANTA YNEZ VALLEY


CITY           SKY/WX    TMP DP  RH WIND       PRES   REMARKS
SAN LUIS OBISP CLEAR     47  44  90 SE5       30.09S
SANTA MARIA    PTCLDY    50  46  86 CALM      30.09F

CITY           SKY/WX    TMP DP  RH WIND       PRES   REMARKS
*CAL POLY SLO    N/A     57  48  72 NE12        N/A
*LOMPOC        PTCLDY    48  43  81 E7        30.09S
*PISMO BEACH     N/A     55  49  81 NE3       30.09S
*SANTA YNEZ    FAIR      50  46  87 NE6       30.09F

$$

CAZ037-038-051-291100-
SAN LUIS OBISPO COUNTY INTERIOR AND CUYAMA VALLEY


CITY           SKY/WX    TMP DP  RH WIND       PRES   REMARKS
*CUYAMA          N/A     49  48  93 CALM      30.12S
PASO ROBLES    PTCLDY    44  41  89 CALM      30.15S FOG

$$

CAZ032-033-061-291100-
SOUTHERN DESERTS


CITY           SKY/WX    TMP DP  RH WIND       PRES   REMARKS
BLYTHE         CLOUDY    59  49  69 W3        30.08S
IMPERIAL       CLOUDY    57  51  80 W6        30.06F
PALM SPRINGS   CLOUDY    63  45  51 NW8       30.10F
THERMAL        CLOUDY    57  48  72 N3        30.07S

$$

ELSEWHERE ACROSS THE WESTERN UNITED STATES AND MEXICO


CITY           SKY/WX    TMP DP  RH WIND       PRES   REMARKS
DENVER, CO     CLOUDY    37  30  75 NW7       30.40S WCI  32
GRAND CANYON,  CLOUDY    41  30  65 NE8       30.27F
HONOLULU, HI   MOCLDY    75  68  78 S3        29.93F
KAHULUI, MAUI  CLEAR     64  61  88 S6        29.95S
LAKE TAHOE, CA PTCLDY    29  23  78 CALM      30.28S
LAS VEGAS, NV  CLOUDY    56  44  64 S7        30.13F
MAMMOTH LAKES, FAIR      30  25  80 CALM      30.30S
MEXICO CITY, M CLEAR     46  37  71 E7        30.34S
PHOENIX, AZ    CLOUDY    61  51  70 E3        30.06R
PORTLAND, OR   CLOUDY    45  42  89 CALM      30.34
RENO, NV       PTCLDY    36  29  75 CALM      30.30S
SALT LAKE CITY PTCLDY    33  31  92 SE3       30.38F
SAN DIEGO, CA  CLOUDY    62  52  69 CALM      30.04F
SAN FRANCISCO, PTCLDY    51  51 100 S3        30.17R
SAN JOSE, CA   CLEAR     48  43  82 CALM      30.16S
SEATTLE, WA    MOCLDY    43  39  86 N9        30.36S
TIJUANA, MEX   CLOUDY    61  43  51 CALM      30.06F

$$

STATION/POSITION TIME  TEMP    WIND        PRES    VSBY  WAVE
                       AIR SEA DIR/SP/G                  HT/PER
                 (UTC) (F)     (DEG/KT/KT) (MB)    (MI)  (FT/S)
POINT ARGUELLO B NOT AVBL
WEST SANTA BARBA 1000   62 60  320/  6/  6 1017.4F         4/12
POINT CONCEPTION NOT AVBL
EAST SANTA BARBA NOT AVBL
SANTA MONICA BAY 1000   64 61   CALM  /  2 1017.6F         4/14



USA.gov is the U.S. government's official web portal to all federal, state and local government web resources and services.